This demonstration page uses our WeatherBlox Daily Observations layout. Learn more.

Left ArrowRight Arrow

Hourly Observations for May 3, 2015

Temp ( °F °C ) Dew Point ( °F °C ) Humidity (%) Winds ( mph kmh ) Pressure ( in mb ) Visibility ( mi km ) Precip ( " mm )
12:53 am 00:53 Clear 66 18.9 49 9.4 54 54 Calm 29.76 1008 10 16 0.00 0.00
1:53 am 01:53 Clear 65 18.3 49 9.4 56 56 N 3 6 29.76 1008 10 16 0.00 0.00
2:53 am 02:53 Clear 62 16.7 50 10 65 65 Calm 29.76 1008 10 16 0.00 0.00
3:53 am 03:53 Clear 61 16.1 50 10 67 67 Calm 29.77 1008 10 16 0.00 0.00
4:53 am 04:53 Clear 59 15 49 9.4 69 69 Calm 29.77 1008 10 16 0.00 0.00
5:53 am 05:53 Clear 57 13.9 49 9.4 74 74 Calm 29.78 1008 10 16 0.00 0.00
6:53 am 06:53 Sunny 58 14.4 50 10 75 75 Calm 29.79 1009 7 11 0.00 0.00
7:53 am 07:53 Sunny 64 17.8 49 9.4 58 58 Calm 29.80 1009 10 16 0.00 0.00
8:53 am 08:53 Sunny 68 20 48 8.9 49 49 W 5 7 29.81 1009 10 16 0.00 0.00
9:53 am 09:53 Sunny 72 22.2 49 9.4 44 44 VRB 3 6 29.81 1010 10 16 0.00 0.00
10:53 am 10:53 Sunny 75 23.9 50 10 41 41 Calm 29.81 1009 10 16 0.00 0.00
11:53 am 11:53 Sunny 80 26.7 48 8.9 33 33 Calm 29.79 1009 10 16 0.00 0.00
12:53 pm 12:53 Sunny 82 27.8 45 7.2 27 27 undefined N/A 29.78 1008 10 16 0.00 0.00
1:53 pm 13:53 Sunny 84 28.9 46 7.8 27 27 S 8 13 29.76 1008 10 16 0.00 0.00
2:53 pm 14:53 Sunny 86 30 42 5.6 21 21 SSE 8 13 29.75 1008 10 16 0.00 0.00
3:53 pm 15:53 Sunny 88 31.1 45 7.2 22 22 S 9 15 29.73 1007 10 16 0.00 0.00
4:53 pm 16:53 Sunny 87 30.6 43 6.1 21 21 SSE 10 17 29.71 1006 10 16 0.00 0.00
5:53 pm 17:53 Sunny 86 30 41 5 20 20 S 13 20 29.71 1006 10 16 0.00 0.00
6:53 pm 18:53 Sunny 84 28.9 46 7.8 27 27 S 12 19 29.70 1006 10 16 0.00 0.00
7:53 pm 19:53 Sunny 79 26.1 51 10.6 38 38 S 8 13 29.72 1006 10 16 0.00 0.00
8:53 pm 20:53 Clear 75 23.9 50 10 41 41 S 6 9 29.74 1007 10 16 0.00 0.00
9:53 pm 21:53 Clear 75 23.9 47 8.3 37 37 S 10 17 29.77 1008 10 16 0.00 0.00
10:53 pm 22:53 Clear 74 23.3 47 8.3 38 38 SSW 8 13 29.78 1009 10 16 0.00 0.00
11:53 pm 23:53 Clear 70 21.1 48 8.9 46 46 WSW 3 6 29.80 1009 10 16 0.00 0.00

Powered by AerisWeather